Time,TemperatureF,DewpointF,PressureIn,WindDirection,WindDirectionDegrees,WindSpeedMPH,WindSpeedGustMPH,Humidity,HourlyPrecipIn,Conditions,Clouds,dailyrainin,SoftwareType,DateUTC
2015-06-02 00:09:00,52.3,47.6,29.97,East,88,0.0,1.0,84,0.00,,,0.00,Wunderground v.1.15,2015-06-02 07:09:00,
2015-06-02 00:19:00,52.3,47.6,29.97,East,88,0.0,1.0,84,0.00,,,0.00,Wunderground v.1.15,2015-06-02 07:19:00,
2015-06-02 00:24:00,52.2,47.5,29.97,East,88,0.0,1.0,84,0.00,,,0.00,Wunderground v.1.15,2015-06-02 07:24:00,
2015-06-02 00:29:00,52.2,47.5,29.97,East,88,0.0,1.0,84,0.00,,,0.00,Wunderground v.1.15,2015-06-02 07:29:00,
2015-06-02 00:39:00,52.0,47.6,29.97,East,88,0.0,1.0,85,0.00,,,0.00,Wunderground v.1.15,2015-06-02 07:39:00,
2015-06-02 00:49:00,51.8,47.4,29.97,East,88,0.0,1.0,85,0.00,,,0.00,Wunderground v.1.15,2015-06-02 07:49:00,
2015-06-02 00:59:00,51.6,47.2,29.96,East,88,0.0,1.0,85,0.00,,,0.00,Wunderground v.1.15,2015-06-02 07:59:00,
2015-06-02 01:04:00,51.5,47.5,29.96,East,88,0.0,1.0,86,0.00,,,0.00,Wunderground v.1.15,2015-06-02 08:04:00,
2015-06-02 01:14:00,51.4,47.4,29.96,East,88,0.0,1.0,86,0.00,,,0.00,Wunderground v.1.15,2015-06-02 08:14:00,
2015-06-02 01:19:00,51.5,47.5,29.96,East,88,0.0,1.0,86,0.00,,,0.00,Wunderground v.1.15,2015-06-02 08:19:00,
2015-06-02 01:29:00,51.5,47.5,29.96,East,88,0.0,1.0,86,0.00,,,0.00,Wunderground v.1.15,2015-06-02 08:29:00,
2015-06-02 01:39:00,51.4,47.4,29.96,East,88,0.0,1.0,86,0.00,,,0.00,Wunderground v.1.15,2015-06-02 08:39:00,
2015-06-02 01:49:00,51.4,47.7,29.96,East,88,0.0,1.0,87,0.00,,,0.00,Wunderground v.1.15,2015-06-02 08:49:00,
2015-06-02 01:59:00,51.2,47.5,29.96,East,88,0.0,1.0,87,0.00,,,0.00,Wunderground v.1.15,2015-06-02 08:59:00,
2015-06-02 02:09:00,51.0,47.6,29.96,East,88,0.0,1.0,88,0.00,,,0.00,Wunderground v.1.15,2015-06-02 09:09:00,
2015-06-02 02:19:00,50.8,47.4,29.95,East,88,0.0,1.0,88,0.00,,,0.00,Wunderground v.1.15,2015-06-02 09:19:00,
2015-06-02 02:29:00,50.7,47.3,29.95,East,88,0.0,1.0,88,0.00,,,0.00,Wunderground v.1.15,2015-06-02 09:29:00,
2015-06-02 02:39:00,50.6,47.2,29.95,East,88,0.0,1.0,88,0.00,,,0.00,Wunderground v.1.15,2015-06-02 09:39:00,
2015-06-02 02:44:00,50.5,47.1,29.95,East,88,0.0,1.0,88,0.00,,,0.00,Wunderground v.1.15,2015-06-02 09:44:00,
2015-06-02 02:54:00,50.4,47.0,29.95,East,88,0.0,1.0,88,0.00,,,0.00,Wunderground v.1.15,2015-06-02 09:54:00,
2015-06-02 03:04:00,50.5,47.4,29.95,East,88,0.0,1.0,89,0.00,,,0.00,Wunderground v.1.15,2015-06-02 10:04:00,
2015-06-02 03:09:00,50.5,47.4,29.95,East,88,0.0,1.0,89,0.00,,,0.00,Wunderground v.1.15,2015-06-02 10:09:00,
2015-06-02 03:19:00,50.6,47.5,29.95,East,88,0.0,1.0,89,0.00,,,0.00,Wunderground v.1.15,2015-06-02 10:19:00,
2015-06-02 03:29:00,50.7,47.6,29.94,East,88,0.0,1.0,89,0.00,,,0.00,Wunderground v.1.15,2015-06-02 10:29:00,
2015-06-02 03:49:00,50.4,47.6,29.94,East,88,0.0,1.0,90,0.00,,,0.00,Wunderground v.1.15,2015-06-02 10:49:00,
2015-06-02 03:59:00,50.5,47.4,29.94,East,88,0.0,1.0,89,0.00,,,0.00,Wunderground v.1.15,2015-06-02 10:59:00,
2015-06-02 04:09:00,51.1,46.7,29.94,East,88,0.0,1.0,85,0.00,,,0.00,Wunderground v.1.15,2015-06-02 11:09:00,
2015-06-02 04:19:00,51.8,46.5,29.95,East,88,0.0,1.0,82,0.00,,,0.00,Wunderground v.1.15,2015-06-02 11:19:00,
2015-06-02 04:29:00,52.4,46.1,29.95,East,88,0.0,1.0,79,0.00,,,0.00,Wunderground v.1.15,2015-06-02 11:29:00,
2015-06-02 04:39:00,53.0,45.6,29.95,East,88,1.0,1.0,76,0.00,,,0.00,Wunderground v.1.15,2015-06-02 11:39:00,
2015-06-02 04:49:00,53.6,45.5,29.95,East,88,0.0,1.0,74,0.00,,,0.00,Wunderground v.1.15,2015-06-02 11:49:00,
2015-06-02 04:59:00,53.7,45.2,29.94,East,88,0.0,1.0,73,0.00,,,0.00,Wunderground v.1.15,2015-06-02 11:59:00,
2015-06-02 05:09:00,53.7,44.9,29.94,East,88,0.0,1.0,72,0.00,,,0.00,Wunderground v.1.15,2015-06-02 12:09:00,
2015-06-02 05:19:00,53.6,44.8,29.94,East,88,0.0,1.0,72,0.00,,,0.00,Wunderground v.1.15,2015-06-02 12:19:00,
2015-06-02 05:34:00,53.5,44.3,29.94,East,88,0.0,1.0,71,0.00,,,0.00,Wunderground v.1.15,2015-06-02 12:34:00,
2015-06-02 05:39:00,53.5,44.3,29.94,East,88,0.0,1.0,71,0.00,,,0.00,Wunderground v.1.15,2015-06-02 12:39:00,
2015-06-02 05:49:00,53.4,44.2,29.94,East,88,0.0,1.0,71,0.00,,,0.00,Wunderground v.1.15,2015-06-02 12:49:00,
2015-06-02 05:59:00,53.2,44.0,29.95,East,88,0.0,1.0,71,0.00,,,0.00,Wunderground v.1.15,2015-06-02 12:59:00,
2015-06-02 06:09:00,53.3,44.1,29.95,East,88,0.0,1.0,71,0.00,,,0.00,Wunderground v.1.15,2015-06-02 13:09:00,
2015-06-02 06:14:00,53.3,43.8,29.95,East,88,0.0,1.0,70,0.00,,,0.00,Wunderground v.1.15,2015-06-02 13:14:00,
2015-06-02 06:24:00,53.5,44.0,29.95,East,88,0.0,1.0,70,0.00,,,0.00,Wunderground v.1.15,2015-06-02 13:24:00,
2015-06-02 06:34:00,53.7,43.8,29.95,East,88,0.0,1.0,69,0.00,,,0.00,Wunderground v.1.15,2015-06-02 13:34:00,
2015-06-02 06:44:00,53.8,43.9,29.95,East,88,0.0,1.0,69,0.00,,,0.00,Wunderground v.1.15,2015-06-02 13:44:00,
2015-06-02 06:54:00,53.8,43.9,29.95,East,88,0.0,1.0,69,0.00,,,0.00,Wunderground v.1.15,2015-06-02 13:54:00,
2015-06-02 07:04:00,53.9,44.7,29.95,East,88,0.0,1.0,71,0.00,,,0.00,Wunderground v.1.15,2015-06-02 14:04:00,
2015-06-02 07:14:00,54.6,44.6,29.94,East,88,0.0,1.0,69,0.00,,,0.00,Wunderground v.1.15,2015-06-02 14:14:00,
2015-06-02 07:24:00,55.0,45.0,29.94,East,88,0.0,1.0,69,0.00,,,0.00,Wunderground v.1.15,2015-06-02 14:24:00,
2015-06-02 07:34:00,55.5,44.7,29.95,East,88,0.0,1.0,67,0.00,,,0.00,Wunderground v.1.15,2015-06-02 14:34:00,
2015-06-02 07:44:00,56.6,44.6,29.95,East,88,0.0,2.0,64,0.00,,,0.00,Wunderground v.1.15,2015-06-02 14:44:00,
2015-06-02 07:54:00,57.5,45.4,29.95,South,190,0.0,1.0,64,0.00,,,0.00,Wunderground v.1.15,2015-06-02 14:54:00,
2015-06-02 08:04:00,58.0,45.5,29.96,South,190,0.0,1.0,63,0.00,,,0.00,Wunderground v.1.15,2015-06-02 15:04:00,
2015-06-02 08:14:00,58.4,45.0,29.96,South,190,0.0,1.0,61,0.00,,,0.00,Wunderground v.1.15,2015-06-02 15:14:00,
2015-06-02 08:24:00,59.1,45.7,29.96,South,190,1.0,1.0,61,0.00,,,0.00,Wunderground v.1.15,2015-06-02 15:24:00,
2015-06-02 08:34:00,60.4,46.0,29.96,South,190,0.0,1.0,59,0.00,,,0.00,Wunderground v.1.15,2015-06-02 15:34:00,
2015-06-02 08:44:00,61.4,44.6,29.96,South,190,1.0,1.0,54,0.00,,,0.00,Wunderground v.1.15,2015-06-02 15:44:00,
2015-06-02 08:54:00,62.0,44.7,29.96,ESE,121,0.0,1.0,53,0.00,,,0.00,Wunderground v.1.15,2015-06-02 15:54:00,
2015-06-02 09:04:00,62.6,45.2,29.97,ESE,121,1.0,1.0,53,0.00,,,0.00,Wunderground v.1.15,2015-06-02 16:04:00,
2015-06-02 09:14:00,63.6,46.6,29.97,ESE,121,1.0,1.0,54,0.00,,,0.00,Wunderground v.1.15,2015-06-02 16:14:00,
2015-06-02 09:24:00,64.5,47.0,29.97,SE,128,1.0,2.0,53,0.00,,,0.00,Wunderground v.1.15,2015-06-02 16:24:00,
2015-06-02 09:34:00,65.2,47.6,29.97,SE,140,1.0,1.0,53,0.00,,,0.00,Wunderground v.1.15,2015-06-02 16:34:00,
2015-06-02 09:55:00,66.0,47.9,29.97,SSE,162,2.0,2.0,52,0.00,,,0.00,Wunderground v.1.15,2015-06-02 16:55:00,
2015-06-02 10:00:00,66.2,48.0,29.97,South,182,2.0,3.0,52,0.00,,,0.00,Wunderground v.1.15,2015-06-02 17:00:00,
2015-06-02 10:20:00,67.2,46.8,29.96,SSE,151,2.0,4.0,48,0.00,,,0.00,Wunderground v.1.15,2015-06-02 17:20:00,
2015-06-02 10:30:00,67.6,47.2,29.96,ESE,113,2.0,2.0,48,0.00,,,0.00,Wunderground v.1.15,2015-06-02 17:30:00,
2015-06-02 10:40:00,67.7,47.3,29.96,SSE,166,2.0,2.0,48,0.00,,,0.00,Wunderground v.1.15,2015-06-02 17:40:00,
2015-06-02 10:45:00,67.9,46.9,29.96,SSE,153,2.0,5.0,47,0.00,,,0.00,Wunderground v.1.15,2015-06-02 17:45:00,
2015-06-02 10:55:00,68.0,48.1,29.96,SE,143,3.0,5.0,49,0.00,,,0.00,Wunderground v.1.15,2015-06-02 17:55:00,
2015-06-02 11:05:00,68.1,47.7,29.96,ESE,121,3.0,7.0,48,0.00,,,0.00,Wunderground v.1.15,2015-06-02 18:05:00,
2015-06-02 11:15:00,68.2,47.8,29.96,SE,140,3.0,5.0,48,0.00,,,0.00,Wunderground v.1.15,2015-06-02 18:15:00,
2015-06-02 11:25:00,68.3,47.8,29.96,SSE,163,3.0,5.0,48,0.00,,,0.00,Wunderground v.1.15,2015-06-02 18:25:00,
2015-06-02 11:35:00,68.7,47.6,29.96,ESE,115,3.0,5.0,47,0.00,,,0.00,Wunderground v.1.15,2015-06-02 18:35:00,
2015-06-02 11:45:00,69.3,47.6,29.96,SE,132,3.0,5.0,46,0.00,,,0.00,Wunderground v.1.15,2015-06-02 18:45:00,
2015-06-02 11:55:00,69.4,48.3,29.96,SSE,150,4.0,5.0,47,0.00,,,0.00,Wunderground v.1.15,2015-06-02 18:55:00,
2015-06-02 12:00:00,68.9,47.8,29.96,ESE,111,4.0,4.0,47,0.00,,,0.00,Wunderground v.1.15,2015-06-02 19:00:00,
2015-06-02 12:10:00,70.1,47.8,29.96,SSW,209,3.0,3.0,45,0.00,,,0.00,Wunderground v.1.15,2015-06-02 19:10:00,
2015-06-02 12:20:00,70.6,49.4,29.96,SSW,192,2.0,5.0,47,0.00,,,0.00,Wunderground v.1.15,2015-06-02 19:20:00,
2015-06-02 12:30:00,69.2,48.7,29.95,East,96,3.0,3.0,48,0.00,,,0.00,Wunderground v.1.15,2015-06-02 19:30:00,
2015-06-02 12:40:00,69.7,49.1,29.95,ESE,122,3.0,3.0,48,0.00,,,0.00,Wunderground v.1.15,2015-06-02 19:40:00,
2015-06-02 12:45:00,69.9,49.9,29.94,SSW,194,3.0,5.0,49,0.00,,,0.00,Wunderground v.1.15,2015-06-02 19:45:00,
2015-06-02 12:55:00,71.0,49.2,29.95,SSE,157,2.0,5.0,46,0.00,,,0.00,Wunderground v.1.15,2015-06-02 19:55:00,
2015-06-02 13:05:00,71.4,48.9,29.95,SSE,147,3.0,5.0,45,0.00,,,0.00,Wunderground v.1.15,2015-06-02 20:05:00,
2015-06-02 13:15:00,71.9,49.4,29.95,SSW,194,2.0,5.0,45,0.00,,,0.00,Wunderground v.1.15,2015-06-02 20:15:00,
2015-06-02 13:25:00,72.2,49.7,29.95,SSE,149,2.0,4.0,45,0.00,,,0.00,Wunderground v.1.15,2015-06-02 20:25:00,
2015-06-02 13:30:00,72.5,49.9,29.95,South,171,3.0,3.0,45,0.00,,,0.00,Wunderground v.1.15,2015-06-02 20:30:00,
2015-06-02 13:40:00,72.6,50.0,29.94,West,261,2.0,2.0,45,0.00,,,0.00,Wunderground v.1.15,2015-06-02 20:40:00,
2015-06-02 13:50:00,71.9,50.0,29.94,South,179,3.0,5.0,46,0.00,,,0.00,Wunderground v.1.15,2015-06-02 20:50:00,
2015-06-02 14:00:00,72.1,49.0,29.94,SE,143,2.0,2.0,44,0.00,,,0.00,Wunderground v.1.15,2015-06-02 21:00:00,
2015-06-02 14:10:00,71.5,47.8,29.93,SSW,193,3.0,3.0,43,0.00,,,0.00,Wunderground v.1.15,2015-06-02 21:10:00,
2015-06-02 14:20:00,71.9,46.9,29.93,South,189,3.0,3.0,41,0.00,,,0.00,Wunderground v.1.15,2015-06-02 21:20:00,
2015-06-02 14:30:00,72.1,47.1,29.93,SSE,165,2.0,2.0,41,0.00,,,0.00,Wunderground v.1.15,2015-06-02 21:30:00,
2015-06-02 14:35:00,72.0,48.3,29.93,SE,142,3.0,3.0,43,0.00,,,0.00,Wunderground v.1.15,2015-06-02 21:35:00,
2015-06-02 14:45:00,72.6,48.2,29.93,WNW,292,2.0,5.0,42,0.00,,,0.00,Wunderground v.1.15,2015-06-02 21:45:00,
2015-06-02 14:55:00,72.3,47.3,29.93,SE,138,3.0,5.0,41,0.00,,,0.00,Wunderground v.1.15,2015-06-02 21:55:00,
2015-06-02 15:05:00,71.9,47.6,29.92,ESE,113,2.0,7.0,42,0.00,,,0.00,Wunderground v.1.15,2015-06-02 22:05:00,
2015-06-02 15:15:00,72.0,47.0,29.93,South,190,3.0,5.0,41,0.00,,,0.00,Wunderground v.1.15,2015-06-02 22:15:00,
2015-06-02 15:25:00,72.2,47.2,29.92,South,173,2.0,4.0,41,0.00,,,0.00,Wunderground v.1.15,2015-06-02 22:25:00,
2015-06-02 15:35:00,72.5,47.5,29.92,SE,140,2.0,5.0,41,0.00,,,0.00,Wunderground v.1.15,2015-06-02 22:35:00,
2015-06-02 15:45:00,73.3,47.5,29.92,SE,140,1.0,5.0,40,0.00,,,0.00,Wunderground v.1.15,2015-06-02 22:45:00,
2015-06-02 15:55:00,72.9,46.5,29.92,SSE,157,2.0,5.0,39,0.00,,,0.00,Wunderground v.1.15,2015-06-02 22:55:00,
2015-06-02 16:05:00,73.5,45.6,29.91,ESE,113,1.0,2.0,37,0.00,,,0.00,Wunderground v.1.15,2015-06-02 23:05:00,
2015-06-02 16:15:00,72.9,45.8,29.91,East,91,2.0,5.0,38,0.00,,,0.00,Wunderground v.1.15,2015-06-02 23:15:00,
2015-06-02 16:25:00,73.1,46.7,29.91,SSE,164,1.0,5.0,39,0.00,,,0.00,Wunderground v.1.15,2015-06-02 23:25:00,
2015-06-02 16:30:00,73.0,46.6,29.91,SSW,194,1.0,5.0,39,0.00,,,0.00,Wunderground v.1.15,2015-06-02 23:30:00,
2015-06-02 16:35:00,72.9,46.5,29.90,SW,220,1.0,5.0,39,0.00,,,0.00,Wunderground v.1.15,2015-06-02 23:35:00,
2015-06-02 16:40:00,72.8,44.3,29.90,SSW,213,1.0,1.0,36,0.00,,,0.00,Wunderground v.1.15,2015-06-02 23:40:00,
2015-06-02 16:50:00,73.1,43.8,29.90,SE,132,0.0,5.0,35,0.00,,,0.00,Wunderground v.1.15,2015-06-02 23:50:00,
2015-06-02 17:00:00,72.7,44.9,29.90,South,175,1.0,5.0,37,0.00,,,0.00,Wunderground v.1.15,2015-06-03 00:00:00,
2015-06-02 17:10:00,70.9,45.4,29.90,East,100,1.0,5.0,40,0.00,,,0.00,Wunderground v.1.15,2015-06-03 00:10:00,
2015-06-02 17:20:00,69.9,47.0,29.90,ESE,107,0.0,5.0,44,0.00,,,0.00,Wunderground v.1.15,2015-06-03 00:20:00,
2015-06-02 17:30:00,68.9,46.1,29.90,SE,132,0.0,5.0,44,0.00,,,0.00,Wunderground v.1.15,2015-06-03 00:30:00,
2015-06-02 17:40:00,68.6,46.4,29.90,WNW,296,1.0,5.0,45,0.00,,,0.00,Wunderground v.1.15,2015-06-03 00:40:00,
2015-06-02 17:50:00,67.2,47.4,29.89,West,259,1.0,1.0,49,0.00,,,0.00,Wunderground v.1.15,2015-06-03 00:50:00,
2015-06-02 18:00:00,66.4,46.7,29.89,West,259,0.0,5.0,49,0.00,,,0.00,Wunderground v.1.15,2015-06-03 01:00:00,
2015-06-02 18:10:00,66.6,44.6,29.88,SW,219,1.0,1.0,45,0.00,,,0.00,Wunderground v.1.15,2015-06-03 01:10:00,
2015-06-02 18:20:00,66.4,46.1,29.88,SW,219,0.0,5.0,48,0.00,,,0.00,Wunderground v.1.15,2015-06-03 01:20:00,
2015-06-02 18:30:00,65.3,47.2,29.88,NW,308,1.0,5.0,52,0.00,,,0.00,Wunderground v.1.15,2015-06-03 01:30:00,
2015-06-02 18:40:00,64.7,47.7,29.88,NW,308,0.0,5.0,54,0.00,,,0.00,Wunderground v.1.15,2015-06-03 01:40:00,
2015-06-02 18:50:00,64.2,47.2,29.88,NW,308,0.0,5.0,54,0.00,,,0.00,Wunderground v.1.15,2015-06-03 01:50:00,
2015-06-02 19:00:00,63.9,47.4,29.88,NW,308,0.0,5.0,55,0.00,,,0.00,Wunderground v.1.15,2015-06-03 02:00:00,
2015-06-02 19:05:00,63.8,47.3,29.88,NW,308,0.0,5.0,55,0.00,,,0.00,Wunderground v.1.15,2015-06-03 02:05:00,
2015-06-02 19:15:00,63.6,47.1,29.88,ENE,59,0.0,5.0,55,0.00,,,0.00,Wunderground v.1.15,2015-06-03 02:15:00,
2015-06-02 19:25:00,63.4,46.9,29.88,ENE,59,0.0,5.0,55,0.00,,,0.00,Wunderground v.1.15,2015-06-03 02:25:00,
2015-06-02 19:35:00,63.1,47.1,29.88,ENE,59,0.0,5.0,56,0.00,,,0.00,Wunderground v.1.15,2015-06-03 02:35:00,
2015-06-02 19:45:00,62.9,47.0,29.88,ENE,59,1.0,5.0,56,0.00,,,0.00,Wunderground v.1.15,2015-06-03 02:45:00,
2015-06-02 19:55:00,62.8,46.9,29.89,ENE,59,0.0,5.0,56,0.00,,,0.00,Wunderground v.1.15,2015-06-03 02:55:00,
2015-06-02 20:05:00,62.6,47.1,29.89,ENE,59,1.0,5.0,57,0.00,,,0.00,Wunderground v.1.15,2015-06-03 03:05:00,
2015-06-02 20:15:00,62.3,47.8,29.89,ENE,59,0.0,5.0,59,0.00,,,0.00,Wunderground v.1.15,2015-06-03 03:15:00,
2015-06-02 20:25:00,61.6,47.6,29.89,ENE,59,1.0,5.0,60,0.00,,,0.00,Wunderground v.1.15,2015-06-03 03:25:00,
2015-06-02 20:35:00,61.1,47.1,29.89,ENE,59,0.0,5.0,60,0.00,,,0.00,Wunderground v.1.15,2015-06-03 03:35:00,
2015-06-02 20:45:00,60.9,46.9,29.89,ENE,59,0.0,5.0,60,0.00,,,0.00,Wunderground v.1.15,2015-06-03 03:45:00,
2015-06-02 20:55:00,60.4,46.9,29.89,ENE,59,0.0,5.0,61,0.00,,,0.00,Wunderground v.1.15,2015-06-03 03:55:00,
2015-06-02 21:05:00,59.9,46.8,29.89,ENE,59,0.0,5.0,62,0.00,,,0.00,Wunderground v.1.15,2015-06-03 04:05:00,
2015-06-02 21:15:00,59.5,46.5,29.89,ENE,59,0.0,5.0,62,0.00,,,0.00,Wunderground v.1.15,2015-06-03 04:15:00,
2015-06-02 21:25:00,59.3,46.7,29.89,ENE,59,0.0,5.0,63,0.00,,,0.00,Wunderground v.1.15,2015-06-03 04:25:00,
2015-06-02 21:35:00,59.2,46.6,29.89,ENE,59,0.0,5.0,63,0.00,,,0.00,Wunderground v.1.15,2015-06-03 04:35:00,
2015-06-02 21:45:00,59.1,46.5,29.89,ENE,59,0.0,5.0,63,0.00,,,0.00,Wunderground v.1.15,2015-06-03 04:45:00,
2015-06-02 21:55:00,59.2,46.6,29.89,ENE,59,0.0,5.0,63,0.00,,,0.00,Wunderground v.1.15,2015-06-03 04:55:00,
2015-06-02 22:05:00,59.2,46.6,29.89,ENE,59,0.0,5.0,63,0.00,,,0.00,Wunderground v.1.15,2015-06-03 05:05:00,
2015-06-02 22:15:00,59.1,46.1,29.89,ENE,59,0.0,5.0,62,0.00,,,0.00,Wunderground v.1.15,2015-06-03 05:15:00,
2015-06-02 22:25:00,59.1,46.1,29.89,ENE,59,0.0,5.0,62,0.00,,,0.00,Wunderground v.1.15,2015-06-03 05:25:00,
2015-06-02 22:35:00,59.1,46.1,29.89,ENE,59,0.0,5.0,62,0.00,,,0.00,Wunderground v.1.15,2015-06-03 05:35:00,
2015-06-02 22:45:00,59.1,46.1,29.88,ENE,59,0.0,5.0,62,0.00,,,0.00,Wunderground v.1.15,2015-06-03 05:45:00,
2015-06-02 22:55:00,59.0,46.0,29.88,ENE,59,0.0,5.0,62,0.00,,,0.00,Wunderground v.1.15,2015-06-03 05:55:00,